When you browse on this site, cookies collect data to enhance your experience and personalize the content and advertising you see.
Visit our Privacy Policy to learn more. By continuing to use the site, you agree to this use of cookies and data.
  • Em Portugal
  • Lista de países
  • Para 7 dias
  • Temperatura da água
  • Mapa do tempo
  • Widgets de tempo
  • user-avatar
    Iniciar Sessão

    Previsão horária em Mazari Sharif

    Hoje, 2 Junho, Terça-feira

    Tempo Temperatura Precipitação Vento Pressão Humidade
    00:00 +24°C° 0 mm 1 m/s 654 mmHg 20%
    01:00 +23°C° 0 mm 1 m/s 654 mmHg 20%
    02:00 +23°C° 0 mm 1 m/s 653 mmHg 20%
    03:00 +22°C° 0 mm 1 m/s 653 mmHg 20%
    04:00 +22°C° 0 mm 1 m/s 653 mmHg 22%
    05:00 +24°C° 0 mm 1 m/s 654 mmHg 20%
    06:00 +25°C° 0 mm 2 m/s 654 mmHg 18%
    07:00 +27°C° 0 mm 2 m/s 655 mmHg 15%
    08:00 +28°C° 0 mm 2 m/s 656 mmHg 14%
    09:00 +29°C° 0 mm 2 m/s 656 mmHg 13%
    10:00 +30°C° 0 mm 3 m/s 656 mmHg 12%
    11:00 +31°C° 0 mm 3 m/s 656 mmHg 11%
    12:00 +31°C° 0 mm 3 m/s 656 mmHg 11%
    13:00 +33°C° 0 mm 4 m/s 656 mmHg 11%
    14:00 +33°C° 0 mm 4 m/s 655 mmHg 10%
    15:00 +33°C° 0 mm 4 m/s 655 mmHg 10%
    16:00 +33°C° 0 mm 4 m/s 655 mmHg 10%
    17:00 +31°C° 0 mm 3 m/s 654 mmHg 12%
    18:00 +29°C° 0 mm 2 m/s 654 mmHg 13%
    19:00 +28°C° 0 mm 2 m/s 654 mmHg 15%
    20:00 +27°C° 0 mm 1 m/s 654 mmHg 17%
    21:00 +26°C° 0 mm 1 m/s 654 mmHg 18%
    22:00 +25°C° 0 mm 1 m/s 653 mmHg 19%
    23:00 +25°C° 0 mm 1 m/s 653 mmHg 19%

    Amanhã, 3 Junho, Quarta-feira

    Tempo Temperatura Precipitação Vento Pressão Humidade
    00:00 +24°C° 0 mm 1 m/s 653 mmHg 19%
    01:00 +24°C° 0 mm 1 m/s 652 mmHg 19%
    02:00 +24°C° 0 mm 1 m/s 652 mmHg 20%
    03:00 +23°C° 0 mm 1 m/s 652 mmHg 20%
    04:00 +23°C° 0 mm 2 m/s 652 mmHg 21%
    05:00 +24°C° 0 mm 2 m/s 652 mmHg 19%
    06:00 +26°C° 0 mm 2 m/s 653 mmHg 17%
    07:00 +28°C° 0 mm 2 m/s 654 mmHg 16%
    08:00 +29°C° 0 mm 2 m/s 654 mmHg 15%
    09:00 +30°C° 0 mm 2 m/s 654 mmHg 14%
    10:00 +31°C° 0 mm 2 m/s 655 mmHg 13%
    11:00 +33°C° 0 mm 3 m/s 654 mmHg 13%
    12:00 +33°C° 0 mm 3 m/s 654 mmHg 12%
    13:00 +34°C° 0 mm 3 m/s 654 mmHg 12%
    14:00 +34°C° 0 mm 3 m/s 654 mmHg 12%
    15:00 +34°C° 0 mm 3 m/s 654 mmHg 11%
    16:00 +34°C° 0 mm 3 m/s 653 mmHg 11%
    17:00 +31°C° 0 mm 2 m/s 653 mmHg 13%
    18:00 +30°C° 0 mm 2 m/s 653 mmHg 16%
    19:00 +29°C° 0 mm 1 m/s 653 mmHg 18%
    20:00 +28°C° 0 mm 1 m/s 653 mmHg 19%
    21:00 +27°C° 0 mm 1 m/s 653 mmHg 20%
    22:00 +26°C° 0 mm 1 m/s 653 mmHg 21%
    23:00 +26°C° 0 mm 1 m/s 653 mmHg 21%

    Depois de amanhã, 4 Junho, Quinta-feira

    Tempo Temperatura Precipitação Vento Pressão Humidade
    00:00 +26°C° 0 mm 2 m/s 653 mmHg 20%
    01:00 +25°C° 0 mm 2 m/s 652 mmHg 20%
    02:00 +25°C° 0 mm 2 m/s 652 mmHg 20%
    03:00 +24°C° 0 mm 2 m/s 652 mmHg 21%
    04:00 +24°C° 0 mm 2 m/s 652 mmHg 21%
    05:00 +26°C° 0 mm 2 m/s 653 mmHg 19%
    06:00 +27°C° 0 mm 2 m/s 653 mmHg 18%
    07:00 +29°C° 0 mm 3 m/s 654 mmHg 16%
    08:00 +30°C° 0 mm 3 m/s 655 mmHg 14%
    09:00 +32°C° 0 mm 4 m/s 655 mmHg 13%
    10:00 +34°C° 0 mm 5 m/s 655 mmHg 12%
    11:00 +34°C° 0 mm 5 m/s 655 mmHg 11%
    12:00 +35°C° 0 mm 6 m/s 655 mmHg 11%
    13:00 +35°C° 0 mm 6 m/s 655 mmHg 11%
    14:00 +35°C° 0 mm 6 m/s 655 mmHg 11%
    15:00 +35°C° 0 mm 5 m/s 655 mmHg 11%
    16:00 +35°C° 0 mm 5 m/s 654 mmHg 11%
    17:00 +33°C° 0 mm 4 m/s 654 mmHg 13%
    18:00 +31°C° 0 mm 3 m/s 654 mmHg 14%
    19:00 +29°C° 0 mm 2 m/s 654 mmHg 16%
    20:00 +29°C° 0 mm 2 m/s 654 mmHg 16%
    21:00 +28°C° 0 mm 2 m/s 654 mmHg 17%
    22:00 +28°C° 0 mm 3 m/s 654 mmHg 17%
    23:00 +27°C° 0 mm 3 m/s 654 mmHg 18%

    5 Junho, Sexta-feira

    Tempo Temperatura Precipitação Vento Pressão Humidade
    00:00 +27°C° 0 mm 3 m/s 654 mmHg 18%
    01:00 +26°C° 0 mm 3 m/s 653 mmHg 19%
    02:00 +26°C° 0 mm 2 m/s 653 mmHg 20%
    03:00 +25°C° 0 mm 2 m/s 653 mmHg 20%
    04:00 +24°C° 0 mm 2 m/s 652 mmHg 21%
    05:00 +26°C° 0 mm 2 m/s 653 mmHg 19%
    06:00 +28°C° 0 mm 2 m/s 654 mmHg 17%
    07:00 +30°C° 0 mm 2 m/s 655 mmHg 16%
    08:00 +31°C° 0 mm 3 m/s 655 mmHg 14%
    09:00 +33°C° 0 mm 3 m/s 656 mmHg 13%
    10:00 +34°C° 0 mm 3 m/s 656 mmHg 12%
    11:00 +35°C° 0 mm 4 m/s 656 mmHg 11%
    12:00 +36°C° 0 mm 5 m/s 656 mmHg 11%
    13:00 +36°C° 0 mm 6 m/s 656 mmHg 10%
    14:00 +36°C° 0 mm 6 m/s 656 mmHg 10%
    15:00 +36°C° 0 mm 7 m/s 655 mmHg 9%
    16:00 +38°C° 0 mm 7 m/s 655 mmHg 9%
    17:00 +35°C° 0 mm 6 m/s 655 mmHg 10%
    18:00 +34°C° 0 mm 5 m/s 655 mmHg 10%
    19:00 +32°C° 0 mm 4 m/s 654 mmHg 11%
    20:00 +30°C° 0 mm 4 m/s 654 mmHg 13%
    21:00 +29°C° 0 mm 3 m/s 654 mmHg 15%
    22:00 +28°C° 0 mm 2 m/s 654 mmHg 17%
    23:00 +27°C° 0 mm 2 m/s 654 mmHg 18%

    6 Junho, Sábado

    Tempo Temperatura Precipitação Vento Pressão Humidade
    00:00 +27°C° 0 mm 2 m/s 653 mmHg 19%
    01:00 +27°C° 0 mm 3 m/s 653 mmHg 20%
    02:00 +26°C° 0 mm 3 m/s 653 mmHg 21%
    03:00 +26°C° 0 mm 2 m/s 653 mmHg 21%
    04:00 +25°C° 0 mm 2 m/s 653 mmHg 22%
    05:00 +27°C° 0 mm 2 m/s 654 mmHg 20%
    06:00 +28°C° 0 mm 2 m/s 654 mmHg 18%
    07:00 +30°C° 0 mm 2 m/s 655 mmHg 16%
    08:00 +31°C° 0 mm 3 m/s 656 mmHg 14%
    09:00 +34°C° 0 mm 4 m/s 656 mmHg 13%
    10:00 +35°C° 0 mm 6 m/s 656 mmHg 11%
    11:00 +36°C° 0 mm 7 m/s 656 mmHg 11%
    12:00 +37°C° 0 mm 8 m/s 656 mmHg 11%
    13:00 +38°C° 0 mm 9 m/s 656 mmHg 11%
    14:00 +38°C° 0 mm 9 m/s 656 mmHg 12%
    15:00 +37°C° 0 mm 10 m/s 656 mmHg 12%
    16:00 +37°C° 0 mm 10 m/s 655 mmHg 13%
    17:00 +35°C° 0 mm 8 m/s 655 mmHg 14%
    18:00 +33°C° 0 mm 7 m/s 655 mmHg 16%
    19:00 +32°C° 0 mm 5 m/s 654 mmHg 17%
    20:00 +30°C° 0 mm 4 m/s 654 mmHg 19%
    21:00 +29°C° 0 mm 3 m/s 654 mmHg 21%
    22:00 +28°C° 0 mm 2 m/s 654 mmHg 23%
    23:00 +27°C° 0 mm 2 m/s 654 mmHg 23%

    7 Junho, Domingo

    Tempo Temperatura Precipitação Vento Pressão Humidade
    00:00 +27°C° 0 mm 3 m/s 653 mmHg 23%
    01:00 +26°C° 0 mm 3 m/s 653 mmHg 24%
    02:00 +26°C° 0 mm 3 m/s 653 mmHg 24%
    03:00 +25°C° 0 mm 3 m/s 653 mmHg 25%
    04:00 +25°C° 0 mm 3 m/s 653 mmHg 25%
    05:00 +26°C° 0 mm 3 m/s 654 mmHg 23%
    06:00 +28°C° 0 mm 3 m/s 654 mmHg 20%
    07:00 +30°C° 0 mm 4 m/s 655 mmHg 17%
    08:00 +32°C° 0 mm 5 m/s 655 mmHg 16%
    09:00 +33°C° 0 mm 6 m/s 655 mmHg 15%
    10:00 +34°C° 0 mm 7 m/s 656 mmHg 14%
    11:00 +35°C° 0 mm 7 m/s 656 mmHg 14%
    12:00 +35°C° 0 mm 7 m/s 655 mmHg 13%
    13:00 +36°C° 0 mm 7 m/s 655 mmHg 13%
    14:00 +36°C° 0 mm 7 m/s 655 mmHg 13%
    15:00 +35°C° 0 mm 7 m/s 654 mmHg 12%
    16:00 +35°C° 0 mm 7 m/s 654 mmHg 12%
    17:00 +34°C° 0 mm 6 m/s 654 mmHg 13%
    18:00 +33°C° 0 mm 5 m/s 654 mmHg 15%
    19:00 +30°C° 0 mm 4 m/s 653 mmHg 16%
    20:00 +29°C° 0 mm 4 m/s 653 mmHg 18%
    21:00 +28°C° 0 mm 3 m/s 653 mmHg 19%
    22:00 +27°C° 0 mm 2 m/s 653 mmHg 21%
    23:00 +26°C° 0 mm 2 m/s 652 mmHg 22%
    Mostrar mais